This demonstration page uses our WeatherBlox Daily Observations layout. Learn more.

Left ArrowRight Arrow

Hourly Observations for February 2, 2016

Temp ( °F °C ) Dew Point ( °F °C ) Humidity (%) Winds ( mph kmh ) Pressure ( in mb ) Visibility ( mi km ) Precip ( " mm )
12:05 am 00:05 Cloudy with Mist and Fog 47 8.3 44 6.7 90 90 N 12 19 30.06 1018 5 8 0.00 0.00
12:38 am 00:38 Cloudy with Mist and Fog 47 8.3 44 6.7 90 90 N 10 17 30.06 1018 5 8 0.00 0.00
12:59 am 00:59 Cloudy with Mist and Fog 47 8.3 44 6.7 90 90 N 12 19 30.06 1018 5 8 0.00 0.00
1:22 am 01:22 Cloudy with Mist and Fog 47 8.3 44 6.7 90 90 NNE 13 20 30.06 1018 6 10 0.00 0.00
1:44 am 01:44 Cloudy 48 8.9 44 6.7 86 86 N 12 19 30.09 1019 8 13 0.00 0.00
1:59 am 01:59 Cloudy 48 8.9 44 6.7 86 86 NNE 10 17 30.09 1019 8 13 0.00 0.00
2:06 am 02:06 Cloudy 48 8.9 44 6.7 86 86 NNE 9 15 30.09 1019 8 13 0.00 0.00
2:59 am 02:59 Cloudy 48 8.9 43 6.1 83 83 N 12 19 30.10 1019 10 16 0.00 0.00
3:29 am 03:29 Cloudy 47 8.3 43 6.1 86 86 NNE 12 19 30.12 1020 10 16 0.00 0.00
3:59 am 03:59 Mostly Cloudy 47 8.3 43 6.1 86 86 N 10 17 30.12 1020 8 13 0.00 0.00
4:59 am 04:59 Mostly Cloudy 47 8.3 42 5.6 83 83 NNE 10 17 30.15 1021 9 14 0.00 0.00
5:59 am 05:59 Cloudy 47 8.3 41 5 80 80 NNE 13 20 30.18 1022 7 11 0.00 0.00
6:59 am 06:59 Mostly Cloudy 45 7.2 41 5 86 86 NNE 10 17 30.23 1024 9 14 0.00 0.00
7:59 am 07:59 Partly Cloudy with Mist and Fog 45 7.2 41 5 86 86 NNE 9 15 30.25 1025 6 10 0.00 0.00
8:59 am 08:59 Mostly Sunny 48 8.9 40 4.4 74 74 NNE 10 17 30.29 1026 7 11 0.00 0.00
9:59 am 09:59 Mostly Sunny 49 9.4 39 3.9 69 69 NNE 9 15 30.32 1027 8 13 0.00 0.00
10:59 am 10:59 Mostly Sunny 49 9.4 39 3.9 69 69 NNE 12 19 30.33 1027 9 14 0.00 0.00
11:59 am 11:59 Partly Cloudy 50 10 38 3.3 63 63 NNE 12 19 30.32 1027 10 16 0.00 0.00
12:59 pm 12:59 Partly Cloudy 50 10 38 3.3 63 63 ENE 9 15 30.32 1027 10 16 0.00 0.00
1:59 pm 13:59 Mostly Sunny 51 10.6 39 3.9 64 64 NNE 10 17 30.31 1026 10 16 0.00 0.00
2:59 pm 14:59 Mostly Sunny 50 10 39 3.9 66 66 ENE 12 19 30.32 1027 10 16 0.00 0.00
3:59 pm 15:59 Mostly Sunny 49 9.4 39 3.9 69 69 ENE 12 19 30.32 1027 10 16 0.00 0.00
4:59 pm 16:59 Mostly Sunny 47 8.3 39 3.9 74 74 ENE 10 17 30.33 1027 10 16 0.00 0.00
5:59 pm 17:59 Mostly Clear 45 7.2 39 3.9 80 80 E 7 11 30.34 1027 10 16 0.00 0.00
6:59 pm 18:59 Mostly Clear 45 7.2 39 3.9 80 80 E 6 9 30.33 1027 10 16 0.00 0.00
7:59 pm 19:59 Mostly Clear 45 7.2 40 4.4 83 83 E 7 11 30.32 1027 10 16 0.00 0.00
8:59 pm 20:59 Clear 44 6.7 40 4.4 85 85 E 7 11 30.32 1027 10 16 0.00 0.00
9:59 pm 21:59 Clear 44 6.7 40 4.4 85 85 E 7 11 30.31 1026 10 16 0.00 0.00
10:59 pm 22:59 Clear 44 6.7 41 5 89 89 E 7 11 30.27 1025 9 14 0.00 0.00
11:59 pm 23:59 Partly Cloudy 45 7.2 42 5.6 90 90 E 6 9 30.24 1024 8 13 0.00 0.00

Powered by AerisWeather